STARLINK-36425, 67467

Orbit data source: Space-Track

STARLINK-36425, 67467 is a payload satellite owned by SpaceX/Seattle (US) in LEO that was launched on Wed, 14 Jan 2026 UTC via an FALCON 9 launch vehicle from the Air Force Eastern Test Range (AFETR). Payload-class satellites include a variety of spacecraft equipped with specific instruments for various scientific and technological missions. These include communications satellites like Starlink; space stations such as the ISS; scientific satellites like the Hubble; Earth observation satellites from companies like Planet Labs, Umbra, and HawkEye 360; GPS; miniature CubeSats for education and research; and military/defense satellites.

Loading next visibility...
Identifier
67467, 2026-008Y
Orbit
LEO
Country
Flag of USUS
Related business
Manufacturer
SpaceX/Seattle
Mission
Operational spacecraft
Bus & Motor
STARLINK V2MO, Unknown motor
Mass
575 kg wet, ~530 kg dry
Launch date (UTC)
2026-01-14 (2 months ago)
Launch vehicle
FALCON 9
Launch site
Air Force Eastern Test Range (AFETR)
Object type
Payload
Rocket body
Debris
Shape & HBR
Unknown shape, 17.7 m
Radar Cross Section
RCS unknown

Expand to show TLE details & history
Last TLE update: 22 hours ago

TLE from 22 hours ago
0 STARLINK-36425
1 67467U 26008Y   26062.50695164  .00030146  00000-0  10997-2 0  9990
2 67467  42.9995 240.4019 0003411 276.4542  83.5921 15.27600838  8623
Epoch: 2026-03-03T12:10Z
TLE epoch observation values (Epoch: 2026-03-03T12:10:00.621Z)
Latitude
-0.00004°
Longitude
-103.38575°
Altitude
482.502 km
Speed
7.626 km/s
True Right ascension
16h 01m 36s
True Declination
0° 00' 00"
Sunlit
Object was in daylight at epoch
Visualization orbit readout
Latitude
Unknown
Longitude
Unknown
Altitude
Unknown
Speed
Unknown
Apparent Right ascension
Unknown
Apparent Declination
Unknown
Sunlit
N/A
Visualization observer readout
Local Sidereal Time
14:13:48
Azimuth
Unknown
Elevation
Unknown
Doppler factor
Unknown
Orbital elements
Apogee altitude
487.273 km
Perigee altitude
482.591 km
Semi-major axis
6,863.069 km
Eccentricity
0.00034
Inclination
42.9995°
RAAN
240.4019°
Arg. of periapsis
276.4542°
True anomaly
83.63094°
Mean anomaly
83.5921°
Eccentric anomaly
83.61152°
Mean motion
3.81738 °/min
Orbital period
94.31 mins
BSTAR
0.0010997
Loading maneuver chart data...
Computing Atmospheric mass density...
Loading historical data...
Loading historical data...
Loading historical data...
Loading historical data...
Loading historical data...
Loading historical data...
Loading historical data...

Documentation

Showing up to 5 results
|